Date String (YYYY-MM-DD hh:mm:ss) UTC,Instrument flags,absolute air pressure of the measurement (hPa),sample flow rate (lpm),inlet stack bypass flow (lpm),air temperature of the measurement (°C),ambient temperature measured by the external sensor (°C),aerosol sample conditioner tube jacket temperature (°C),OPC LED temperature (°C),internal box temperature (°C),relative humidity of the measurement (%),span deviation,mass concentration of particles derived from Lorenz-Mie calculation of OPC scattering (μg/m³),mass concentration of particles derived from Lorenz-Mie calculation of OPC scattering (μg/m³),mass concentration of particles derived from Lorenz-Mie calculation of OPC scattering (μg/m³)
DateTimeUTC,F1_M11,P_M11,Q1_M11,Q2_M11,T1_M11,T2_M11,T3_M11,T4_M11,T5_M11,U1_M11,ZSPAN_M11,X0_M11,X2_M11,X1_M11
2023-12-27 18:00:00,SystemResetWarning,0831.3,5.00,000.00,019.6,019.0,000.0,027.9,020.8,15.0,0000.0,0002.68,0001.24,0000.73
2023-12-27 18:01:00,SystemResetWarning,0831.4,5.00,000.00,019.6,019.0,000.0,027.9,020.8,15.1,0000.0,0002.69,0001.22,0000.75
2023-12-27 18:02:00,SystemResetWarning,0831.3,5.00,000.00,019.6,019.1,000.0,027.9,020.9,14.9,0000.0,0002.77,0001.24,0000.74
2023-12-27 18:03:00,SystemResetWarning,0831.3,5.01,000.00,019.6,019.1,000.0,027.9,020.9,15.0,0000.0,0003.01,0001.29,0000.74
2023-12-27 18:04:00,SystemResetWarning,0831.3,5.00,000.00,019.6,019.1,000.0,027.9,020.9,14.4,0000.0,0003.03,0001.30,0000.74
2023-12-27 18:05:00,SystemResetWarning,0831.3,5.00,000.00,019.6,019.1,000.0,027.9,020.9,14.8,0000.0,0002.83,0001.28,0000.73
2023-12-27 18:06:00,SystemResetWarning,0831.3,5.00,000.00,019.6,019.1,000.0,027.9,020.9,14.5,0000.0,0002.56,0001.21,0000.71
2023-12-27 18:07:00,SystemResetWarning,0831.3,5.00,000.00,019.7,019.1,000.0,027.9,020.9,14.2,0000.0,0002.38,0001.12,0000.67
2023-12-27 18:08:00,SystemResetWarning,0831.3,5.00,000.00,019.7,019.1,000.0,027.9,020.9,14.4,0000.0,0002.43,0001.12,0000.65
2023-12-27 18:09:00,SystemResetWarning,0831.3,5.01,000.00,019.7,019.1,000.0,027.9,020.9,14.6,0000.0,0002.30,0001.08,0000.63
2023-12-27 18:10:00,SystemResetWarning,0831.4,5.01,000.00,019.7,019.1,000.0,027.9,021.0,15.0,0000.0,0002.22,0001.05,0000.61
2023-12-27 18:11:00,SystemResetWarning,0831.3,5.00,000.00,019.7,019.2,000.0,027.9,021.0,14.7,0000.0,0002.04,0000.98,0000.59
2023-12-27 18:12:00,SystemResetWarning,0831.4,5.00,000.00,019.7,019.2,000.0,027.9,021.0,14.6,0000.0,0002.06,0001.02,0000.58
2023-12-27 18:13:00,SystemResetWarning,0831.3,5.00,000.00,019.7,019.2,000.0,028.0,021.0,14.7,0000.0,0002.04,0001.04,0000.60
2023-12-27 18:14:00,SystemResetWarning,0831.3,5.00,000.00,019.7,019.2,000.0,028.0,021.1,14.7,0000.0,0002.93,0001.12,0000.72
2023-12-27 18:15:00,SystemResetWarning,0831.3,5.00,000.00,019.7,019.3,000.0,028.0,021.1,14.2,0000.0,0004.47,0001.17,0000.81
2023-12-27 18:16:00,SystemResetWarning,0831.3,5.00,000.00,019.8,019.3,000.0,028.0,021.2,14.2,0000.0,0005.22,0001.12,0000.81
2023-12-27 18:17:00,SystemResetWarning,0831.3,5.00,000.00,019.8,019.3,000.0,028.0,021.2,14.4,0000.0,0005.73,0001.13,0000.82
2023-12-27 18:18:00,SystemResetWarning,0831.3,5.00,000.00,019.8,019.3,000.0,028.0,021.2,14.5,0000.0,0005.79,0001.18,0000.87
2023-12-27 18:19:00,SystemResetWarning,0831.2,5.00,000.00,019.8,019.3,000.0,028.0,021.3,13.7,0000.0,0005.79,0001.23,0000.93
2023-12-27 18:20:00,SystemResetWarning,0831.2,5.00,000.00,019.8,019.4,000.0,028.0,021.3,13.7,0000.0,0005.84,0001.28,0000.98
2023-12-27 18:21:00,SystemResetWarning,0831.3,5.00,000.00,019.9,019.4,000.0,028.1,021.3,14.4,0000.0,0005.90,0001.32,0001.02
2023-12-27 18:22:00,SystemResetWarning,0831.3,5.00,000.00,019.9,019.4,000.0,028.1,021.3,13.4,0000.0,0005.99,0001.34,0001.05
2023-12-27 18:23:00,SystemResetWarning,0831.3,5.00,000.00,019.9,019.4,000.0,028.1,021.4,13.2,0000.0,0005.92,0001.32,0001.06
2023-12-27 18:24:00,SystemResetWarning,0831.2,5.00,000.00,019.9,019.4,000.0,028.1,021.4,13.3,0000.0,0005.82,0001.27,0001.06
2023-12-27 18:25:00,SystemResetWarning,0831.3,5.00,000.00,019.9,019.5,000.0,028.1,021.4,13.3,0000.0,0005.13,0001.14,0000.94
2023-12-27 18:26:00,SystemResetWarning,0831.2,5.00,000.00,020.0,019.5,000.0,028.2,021.5,13.3,0000.0,0003.08,0001.03,0000.82
2023-12-27 18:27:00,SystemResetWarning,0831.3,5.00,000.00,020.0,019.5,000.0,028.2,021.5,12.9,0000.0,0002.47,0001.04,0000.81
2023-12-27 18:28:00,SystemResetWarning,0831.3,5.00,000.00,020.0,019.5,000.0,028.2,021.5,13.0,0000.0,0001.77,0001.06,0000.81
2023-12-27 18:29:00,SystemResetWarning,0831.3,5.00,000.00,020.0,019.6,000.0,028.2,021.6,13.0,0000.0,0001.76,0001.03,0000.77
2023-12-27 18:30:00,SystemResetWarning,0831.3,5.00,000.00,020.1,019.6,000.0,028.2,021.6,13.1,0000.0,0001.67,0000.97,0000.73
2023-12-27 18:31:00,SystemResetWarning,0831.3,5.00,000.00,020.1,019.6,000.0,028.3,021.6,13.1,0000.0,0001.53,0000.90,0000.69
2023-12-27 18:32:00,SystemResetWarning,0831.3,5.00,000.00,020.1,019.6,000.0,028.3,021.6,13.1,0000.0,0001.36,0000.83,0000.64
2023-12-27 18:33:00,SystemResetWarning,0831.3,5.00,000.00,020.1,019.7,000.0,028.3,021.6,13.1,0000.0,0001.26,0000.82,0000.62
2023-12-27 18:34:00,SystemResetWarning,0831.3,5.00,000.00,020.2,019.7,000.0,028.3,021.6,12.9,0000.0,0001.32,0000.82,0000.60
2023-12-27 18:35:00,SystemResetWarning,0831.3,5.00,000.00,020.2,019.7,000.0,028.3,021.6,12.8,0000.0,0001.37,0000.84,0000.60
2023-12-27 18:36:00,SystemResetWarning,0831.3,5.00,000.00,020.2,019.7,000.0,028.3,021.7,12.7,0000.0,0001.37,0000.83,0000.60
2023-12-27 18:37:00,SystemResetWarning,0831.3,5.00,000.00,020.2,019.7,000.0,028.4,021.7,12.8,0000.0,0001.29,0000.80,0000.59
2023-12-27 18:38:00,SystemResetWarning,0831.3,5.01,000.00,020.2,019.8,000.0,028.4,021.7,12.5,0000.0,0001.20,0000.77,0000.58
2023-12-27 18:39:00,SystemResetWarning,0831.2,5.00,000.00,020.2,019.8,000.0,028.4,021.7,12.5,0000.0,0001.25,0000.75,0000.58
2023-12-27 18:40:00,SystemResetWarning,0831.2,5.00,000.00,020.3,019.8,000.0,028.4,021.8,12.4,0000.0,0001.31,0000.75,0000.57
2023-12-27 18:41:00,SystemResetWarning,0831.2,5.00,000.00,020.3,019.8,000.0,028.4,021.8,12.3,0000.0,0001.34,0000.74,0000.55
2023-12-27 18:42:00,SystemResetWarning,0831.2,5.00,000.00,020.3,019.8,000.0,028.5,021.8,12.5,0000.0,0001.36,0000.74,0000.55
2023-12-27 18:43:00,SystemResetWarning,0831.2,5.00,000.00,020.3,019.9,000.0,028.5,021.8,12.5,0000.0,0001.36,0000.73,0000.54
2023-12-27 18:44:00,SystemResetWarning,0831.2,5.00,000.00,020.4,019.9,000.0,028.5,021.9,12.8,0000.0,0001.31,0000.69,0000.52
2023-12-27 18:45:00,SystemResetWarning,0831.2,5.00,000.00,020.4,019.9,000.0,028.5,021.9,12.7,0000.0,0001.28,0000.68,0000.51
2023-12-27 18:46:00,SystemResetWarning,0831.1,5.00,000.00,020.4,019.9,000.0,028.5,021.9,12.6,0000.0,0001.22,0000.65,0000.51
2023-12-27 18:47:00,SystemResetWarning,0831.1,5.00,000.00,020.4,019.9,000.0,028.6,021.9,12.4,0000.0,0001.21,0000.65,0000.50
2023-12-27 18:48:00,SystemResetWarning,0831.1,5.00,000.00,020.4,020.0,000.0,028.6,021.9,12.2,0000.0,0001.23,0000.66,0000.50
2023-12-27 18:49:00,SystemResetWarning,0831.1,5.00,000.00,020.5,020.0,000.0,028.6,022.0,12.0,0000.0,0001.60,0000.70,0000.49
2023-12-27 18:50:00,SystemResetWarning,0831.1,5.00,000.00,020.5,020.0,000.0,028.6,022.0,11.9,0000.0,0001.79,0000.70,0000.48
2023-12-27 18:51:00,SystemResetWarning,0831.1,5.01,000.00,020.5,020.0,000.0,028.6,022.0,11.9,0000.0,0001.73,0000.71,0000.48
2023-12-27 18:52:00,SystemResetWarning,0831.1,5.01,000.00,020.5,020.0,000.0,028.7,022.0,12.1,0000.0,0001.89,0000.72,0000.48
2023-12-27 18:53:00,SystemResetWarning,0831.1,5.00,000.00,020.5,020.1,000.0,028.7,022.0,11.9,0000.0,0002.05,0000.72,0000.48
2023-12-27 18:54:00,SystemResetWarning,0831.2,5.00,000.00,020.6,020.1,000.0,028.7,022.0,11.9,0000.0,0002.32,0000.72,0000.48
2023-12-27 18:55:00,SystemResetWarning,0831.1,4.99,000.00,020.6,020.1,000.0,028.7,022.0,11.8,0000.0,0002.31,0000.71,0000.47
2023-12-27 18:56:00,SystemResetWarning,0831.1,4.99,000.00,020.6,020.1,000.0,028.7,022.1,11.7,0000.0,0002.28,0000.70,0000.46
2023-12-27 18:57:00,SystemResetWarning,0831.1,5.00,000.00,020.6,020.1,000.0,028.8,022.1,11.5,0000.0,0002.28,0000.69,0000.45
2023-12-27 18:58:00,SystemResetWarning,0831.1,5.00,000.00,020.6,020.1,000.0,028.8,022.1,11.7,0000.0,0002.29,0000.69,0000.45
2023-12-27 18:59:00,SystemResetWarning,0831.1,4.99,000.00,020.7,020.2,000.0,028.8,022.1,11.6,0000.0,0002.28,0000.67,0000.44
